Year,Month,Day,Hour,Minute,Value (Times are PST for temperature in C)
2018,12,12,08,39,7.30
2018,12,12,08,40,7.30
2018,12,12,08,41,7.40
2018,12,12,08,42,7.40
2018,12,12,08,43,7.40
2018,12,12,08,44,7.40
2018,12,12,08,45,7.40
2018,12,12,08,46,7.40
2018,12,12,08,47,7.40
2018,12,12,08,48,7.50
2018,12,12,08,49,7.50
2018,12,12,08,50,7.60
2018,12,12,08,51,7.60
2018,12,12,08,52,7.70
2018,12,12,08,53,7.70
2018,12,12,08,54,7.70
2018,12,12,08,55,7.70
2018,12,12,08,56,7.80
2018,12,12,08,57,7.80
2018,12,12,08,58,7.80
2018,12,12,08,59,7.80
2018,12,12,09,00,7.80
2018,12,12,09,01,7.80
2018,12,12,09,02,7.80
2018,12,12,09,03,7.80
2018,12,12,09,04,7.80
2018,12,12,09,05,7.80
2018,12,12,09,06,7.80
2018,12,12,09,07,7.80
2018,12,12,09,08,7.80
2018,12,12,09,09,7.80
2018,12,12,09,10,7.80
2018,12,12,09,11,7.80
2018,12,12,09,12,7.90
2018,12,12,09,13,7.90
2018,12,12,09,14,7.90
2018,12,12,09,15,7.90
2018,12,12,09,16,7.90
2018,12,12,09,17,7.90
2018,12,12,09,18,7.90
2018,12,12,09,19,7.90
2018,12,12,09,20,7.90
2018,12,12,09,21,7.90
2018,12,12,09,22,7.90
2018,12,12,09,23,7.90
2018,12,12,09,24,7.90
2018,12,12,09,25,8.00
2018,12,12,09,26,8.00
2018,12,12,09,27,8.00
2018,12,12,09,28,8.00
2018,12,12,09,29,8.00
2018,12,12,09,30,8.00
2018,12,12,09,31,8.00
2018,12,12,09,32,8.00
2018,12,12,09,33,8.00
2018,12,12,09,34,8.00
2018,12,12,09,35,8.00
2018,12,12,09,36,8.00
2018,12,12,09,37,8.00
2018,12,12,09,38,8.00
2018,12,12,09,39,8.10
2018,12,12,09,40,8.10
2018,12,12,09,41,8.10
2018,12,12,09,42,8.10
2018,12,12,09,43,8.10
2018,12,12,09,44,8.10
2018,12,12,09,45,8.10
2018,12,12,09,46,8.10
2018,12,12,09,47,8.10
2018,12,12,09,48,8.10
2018,12,12,09,49,8.10
2018,12,12,09,50,8.10
2018,12,12,09,51,8.10
2018,12,12,09,52,8.10
2018,12,12,09,53,8.10
2018,12,12,09,54,8.10
2018,12,12,09,55,8.10
2018,12,12,09,56,8.10
2018,12,12,09,57,8.10
2018,12,12,09,58,8.10
2018,12,12,09,59,8.10
2018,12,12,10,00,8.10
2018,12,12,10,01,8.10
2018,12,12,10,02,8.10
2018,12,12,10,03,8.10
2018,12,12,10,04,8.10
2018,12,12,10,05,8.10
2018,12,12,10,06,8.10
2018,12,12,10,07,8.10
2018,12,12,10,08,8.10
2018,12,12,10,09,8.10
2018,12,12,10,10,8.10
2018,12,12,10,11,8.10
2018,12,12,10,12,8.10
2018,12,12,10,13,8.10
2018,12,12,10,14,8.10
2018,12,12,10,15,8.10
2018,12,12,10,16,8.20
2018,12,12,10,17,8.20
2018,12,12,10,18,8.20
2018,12,12,10,19,8.20
2018,12,12,10,20,8.20
2018,12,12,10,21,8.30
2018,12,12,10,22,8.30
2018,12,12,10,23,8.30
2018,12,12,10,24,8.30
2018,12,12,10,25,8.30
2018,12,12,10,26,8.30
2018,12,12,10,27,8.40
2018,12,12,10,28,8.40
2018,12,12,10,29,8.40
2018,12,12,10,30,8.40
2018,12,12,10,31,8.40
2018,12,12,10,32,8.40
2018,12,12,10,33,8.40
2018,12,12,10,34,8.40
2018,12,12,10,35,8.40
2018,12,12,10,36,8.40
2018,12,12,10,37,8.40
2018,12,12,10,38,8.40
2018,12,12,10,39,8.40
2018,12,12,10,40,8.40
2018,12,12,10,41,8.40
2018,12,12,10,42,8.40
2018,12,12,10,43,8.40
2018,12,12,10,44,8.40
2018,12,12,10,45,8.40
2018,12,12,10,46,8.40
2018,12,12,10,47,8.50
2018,12,12,10,48,8.50
2018,12,12,10,49,8.50
2018,12,12,10,50,8.50
2018,12,12,10,51,8.50
2018,12,12,10,52,8.50
2018,12,12,10,53,8.50
2018,12,12,10,54,8.50
2018,12,12,10,55,8.50
2018,12,12,10,56,8.60
2018,12,12,10,57,8.60
2018,12,12,10,58,8.60
2018,12,12,10,59,8.60
2018,12,12,11,00,8.60
2018,12,12,11,01,8.70
2018,12,12,11,02,8.70
2018,12,12,11,03,8.70
2018,12,12,11,04,8.70
2018,12,12,11,05,8.80
2018,12,12,11,06,8.80
2018,12,12,11,07,8.80
2018,12,12,11,08,8.80
2018,12,12,11,09,8.90
2018,12,12,11,10,8.90
2018,12,12,11,11,9.00
2018,12,12,11,12,9.00
2018,12,12,11,13,9.10
2018,12,12,11,14,9.10
2018,12,12,11,15,9.10
2018,12,12,11,16,9.10
2018,12,12,11,17,9.10
2018,12,12,11,18,9.10
2018,12,12,11,19,9.10
2018,12,12,11,20,9.10
2018,12,12,11,21,9.10
2018,12,12,11,22,9.10
2018,12,12,11,23,9.10
2018,12,12,11,24,9.10
2018,12,12,11,25,9.00
2018,12,12,11,26,9.00
2018,12,12,11,27,9.00
2018,12,12,11,28,9.00
2018,12,12,11,29,8.90
2018,12,12,11,30,8.90
2018,12,12,11,31,8.90
2018,12,12,11,32,8.90
2018,12,12,11,33,8.90
2018,12,12,11,34,8.90
2018,12,12,11,35,8.90
2018,12,12,11,36,8.80
2018,12,12,11,37,8.80
2018,12,12,11,38,8.70
2018,12,12,11,39,8.70
2018,12,12,11,40,8.70
2018,12,12,11,41,8.60
2018,12,12,11,42,8.60
2018,12,12,11,43,8.60
2018,12,12,11,44,8.60
2018,12,12,11,45,8.60
2018,12,12,11,46,8.60
2018,12,12,11,47,8.50
2018,12,12,11,48,8.50
2018,12,12,11,49,8.50
2018,12,12,11,50,8.40
2018,12,12,11,51,8.40
2018,12,12,11,52,8.30
2018,12,12,11,53,8.30
2018,12,12,11,54,8.30
2018,12,12,11,55,8.30
2018,12,12,11,56,8.30
2018,12,12,11,57,8.20
2018,12,12,11,58,8.20
2018,12,12,11,59,8.20
2018,12,12,12,00,8.20
2018,12,12,12,01,8.10
2018,12,12,12,02,8.10
2018,12,12,12,03,8.10
2018,12,12,12,04,8.10
2018,12,12,12,05,8.10
2018,12,12,12,06,8.20
2018,12,12,12,07,8.20
2018,12,12,12,08,8.30
2018,12,12,12,09,8.30
2018,12,12,12,10,8.30
2018,12,12,12,11,8.30
2018,12,12,12,12,8.30
2018,12,12,12,13,8.30
2018,12,12,12,14,8.30
2018,12,12,12,15,8.30
2018,12,12,12,16,8.30
2018,12,12,12,17,8.20
2018,12,12,12,18,8.20
2018,12,12,12,19,8.20
2018,12,12,12,20,8.10
2018,12,12,12,21,8.10
2018,12,12,12,22,8.00
2018,12,12,12,23,7.90
2018,12,12,12,24,7.90
2018,12,12,12,25,7.80
2018,12,12,12,26,7.80
2018,12,12,12,27,7.70
2018,12,12,12,28,7.70
2018,12,12,12,29,7.60
2018,12,12,12,30,7.60
2018,12,12,12,31,7.60
2018,12,12,12,32,7.60
2018,12,12,12,33,7.60
2018,12,12,12,34,7.50
2018,12,12,12,35,7.50
2018,12,12,12,36,7.50
2018,12,12,12,37,7.50
2018,12,12,12,38,7.40
2018,12,12,12,39,7.40
2018,12,12,12,40,7.40
2018,12,12,12,41,7.40
2018,12,12,12,42,7.40
2018,12,12,12,43,7.40
2018,12,12,12,44,7.40
2018,12,12,12,45,7.30
2018,12,12,12,46,7.30
2018,12,12,12,47,7.30
2018,12,12,12,48,7.30
2018,12,12,12,49,7.30
2018,12,12,12,50,7.40
2018,12,12,12,51,7.40
2018,12,12,12,52,7.40
2018,12,12,12,53,7.40
2018,12,12,12,54,7.40
2018,12,12,12,55,7.40
2018,12,12,12,56,7.40
2018,12,12,12,57,7.40
2018,12,12,12,58,7.40
2018,12,12,12,59,7.40
2018,12,12,13,00,7.40
2018,12,12,13,01,7.40
2018,12,12,13,02,7.40
2018,12,12,13,03,7.40
2018,12,12,13,04,7.40
2018,12,12,13,05,7.40
2018,12,12,13,06,7.40
2018,12,12,13,07,7.40
2018,12,12,13,08,7.30
2018,12,12,13,09,7.30
2018,12,12,13,10,7.30
2018,12,12,13,11,7.30
2018,12,12,13,12,7.30
2018,12,12,13,13,7.30
2018,12,12,13,14,7.30
2018,12,12,13,15,7.30
2018,12,12,13,16,7.30
2018,12,12,13,17,7.30
2018,12,12,13,18,7.30
2018,12,12,13,19,7.30
2018,12,12,13,20,7.30
2018,12,12,13,21,7.30
2018,12,12,13,22,7.30
2018,12,12,13,23,7.30
2018,12,12,13,24,7.30
2018,12,12,13,25,7.30
2018,12,12,13,26,7.30
2018,12,12,13,27,7.30
2018,12,12,13,28,7.30
2018,12,12,13,29,7.30
2018,12,12,13,30,7.30
2018,12,12,13,31,7.30
2018,12,12,13,32,7.30
2018,12,12,13,33,7.30
2018,12,12,13,34,7.30
2018,12,12,13,35,7.30
2018,12,12,13,36,7.30
2018,12,12,13,37,7.30
2018,12,12,13,38,7.30
2018,12,12,13,39,7.30
2018,12,12,13,40,7.30
2018,12,12,13,41,7.30
2018,12,12,13,42,7.30
2018,12,12,13,43,7.30
2018,12,12,13,44,7.30
2018,12,12,13,45,7.30
2018,12,12,13,46,7.30
2018,12,12,13,47,7.30
2018,12,12,13,48,7.30
2018,12,12,13,49,7.30
2018,12,12,13,50,7.30
2018,12,12,13,51,7.30
2018,12,12,13,52,7.30
2018,12,12,13,53,7.30
2018,12,12,13,54,7.30
2018,12,12,13,55,7.30
2018,12,12,13,56,7.30
2018,12,12,13,57,7.30
2018,12,12,13,58,7.30
2018,12,12,13,59,7.30
2018,12,12,14,00,7.30
2018,12,12,14,01,7.30
2018,12,12,14,02,7.30
2018,12,12,14,03,7.30
2018,12,12,14,04,7.30
2018,12,12,14,05,7.30
2018,12,12,14,06,7.30
2018,12,12,14,07,7.30
2018,12,12,14,08,7.30
2018,12,12,14,09,7.30
2018,12,12,14,10,7.30
2018,12,12,14,11,7.30
2018,12,12,14,12,7.30
2018,12,12,14,13,7.30
2018,12,12,14,14,7.30
2018,12,12,14,15,7.30
2018,12,12,14,16,7.30
2018,12,12,14,17,7.30
2018,12,12,14,18,7.30
2018,12,12,14,19,7.30
2018,12,12,14,20,7.30
2018,12,12,14,21,7.30
2018,12,12,14,22,7.30
2018,12,12,14,23,7.30
2018,12,12,14,24,7.30
2018,12,12,14,25,7.30
2018,12,12,14,26,7.30
2018,12,12,14,27,7.30
2018,12,12,14,28,7.20
2018,12,12,14,29,7.20
2018,12,12,14,30,7.20
2018,12,12,14,31,7.20
2018,12,12,14,32,7.30
2018,12,12,14,33,7.30
2018,12,12,14,34,7.30
2018,12,12,14,35,7.30
2018,12,12,14,36,7.30
2018,12,12,14,37,7.30
2018,12,12,14,38,7.30
2018,12,12,14,39,7.30
2018,12,12,14,40,7.30
2018,12,12,14,41,7.30
2018,12,12,14,42,7.30
2018,12,12,14,43,7.40
2018,12,12,14,44,7.40
2018,12,12,14,45,7.40
2018,12,12,14,46,7.40
2018,12,12,14,47,7.40
2018,12,12,14,48,7.40
2018,12,12,14,49,7.40
2018,12,12,14,50,7.40
2018,12,12,14,51,7.40
2018,12,12,14,52,7.40
2018,12,12,14,53,7.40
2018,12,12,14,54,7.40
2018,12,12,14,55,7.40
2018,12,12,14,56,7.40
2018,12,12,14,57,7.40
2018,12,12,14,58,7.40
2018,12,12,14,59,7.40
2018,12,12,15,00,7.40
2018,12,12,15,01,7.40
2018,12,12,15,02,7.40
2018,12,12,15,03,7.40
2018,12,12,15,04,7.40
2018,12,12,15,05,7.50
2018,12,12,15,06,7.50
2018,12,12,15,07,7.50
2018,12,12,15,08,7.50
2018,12,12,15,09,7.50
2018,12,12,15,10,7.50
2018,12,12,15,11,7.50
2018,12,12,15,12,7.50
2018,12,12,15,13,7.60
2018,12,12,15,14,7.60
2018,12,12,15,15,7.60
2018,12,12,15,16,7.60
2018,12,12,15,17,7.60
2018,12,12,15,18,7.70
2018,12,12,15,19,7.70
2018,12,12,15,20,7.70
2018,12,12,15,21,7.70
2018,12,12,15,22,7.70
2018,12,12,15,23,7.70
2018,12,12,15,24,7.70
2018,12,12,15,25,7.70
2018,12,12,15,26,7.80
2018,12,12,15,27,7.80
2018,12,12,15,28,7.80
2018,12,12,15,29,7.80
2018,12,12,15,30,7.80
2018,12,12,15,31,7.80
2018,12,12,15,32,7.80
2018,12,12,15,33,7.80
2018,12,12,15,34,7.80
2018,12,12,15,35,7.80
2018,12,12,15,36,7.80
2018,12,12,15,37,7.80
2018,12,12,15,38,7.80
2018,12,12,15,39,7.80
2018,12,12,15,40,7.80
2018,12,12,15,41,7.80
2018,12,12,15,42,7.80
2018,12,12,15,43,7.90
2018,12,12,15,44,7.90
2018,12,12,15,45,7.90
2018,12,12,15,46,7.90
2018,12,12,15,47,7.90
2018,12,12,15,48,7.90
2018,12,12,15,49,7.90
2018,12,12,15,50,7.90
2018,12,12,15,51,7.90
2018,12,12,15,52,7.90
2018,12,12,15,53,7.90
2018,12,12,15,54,7.90
2018,12,12,15,55,7.90
2018,12,12,15,56,7.90
2018,12,12,15,57,7.90
2018,12,12,15,58,7.90
2018,12,12,15,59,7.90
2018,12,12,16,00,7.90
2018,12,12,16,01,7.90
2018,12,12,16,02,7.90
2018,12,12,16,03,7.90
2018,12,12,16,04,7.90
2018,12,12,16,05,7.90
2018,12,12,16,06,7.90
2018,12,12,16,07,7.90
2018,12,12,16,08,7.90
2018,12,12,16,09,7.90
2018,12,12,16,10,7.90
2018,12,12,16,11,7.90
2018,12,12,16,12,7.90
2018,12,12,16,13,7.90
2018,12,12,16,14,7.90
2018,12,12,16,15,7.90
2018,12,12,16,16,7.90
2018,12,12,16,17,7.90
2018,12,12,16,18,7.90
2018,12,12,16,19,7.90
2018,12,12,16,20,7.90
2018,12,12,16,21,7.90
2018,12,12,16,22,7.90
2018,12,12,16,23,7.90
2018,12,12,16,24,7.90
2018,12,12,16,25,7.90
2018,12,12,16,26,7.90
2018,12,12,16,27,7.90
2018,12,12,16,28,7.90
2018,12,12,16,29,7.90
2018,12,12,16,30,7.90
2018,12,12,16,31,7.90
2018,12,12,16,32,7.90
2018,12,12,16,33,7.90
2018,12,12,16,34,7.90
2018,12,12,16,35,7.90
2018,12,12,16,36,7.90
2018,12,12,16,37,7.90
2018,12,12,16,38,7.90
2018,12,12,16,39,7.90
2018,12,12,16,40,7.90
2018,12,12,16,41,7.90
2018,12,12,16,42,7.90
2018,12,12,16,43,7.90
2018,12,12,16,44,7.90
2018,12,12,16,45,7.90
2018,12,12,16,46,7.90
2018,12,12,16,47,7.90
2018,12,12,16,48,7.90
2018,12,12,16,49,7.90
2018,12,12,16,50,7.90
2018,12,12,16,51,7.90
2018,12,12,16,52,7.90
2018,12,12,16,53,7.90
2018,12,12,16,54,7.90
2018,12,12,16,55,7.90
2018,12,12,16,56,7.90
2018,12,12,16,57,7.90
2018,12,12,16,58,7.90
2018,12,12,16,59,7.90
2018,12,12,17,00,7.90
2018,12,12,17,01,7.90
2018,12,12,17,02,7.90
2018,12,12,17,03,7.90
2018,12,12,17,04,7.90
2018,12,12,17,05,7.90
2018,12,12,17,06,8.00
2018,12,12,17,07,8.00
2018,12,12,17,08,8.00
2018,12,12,17,09,8.00
2018,12,12,17,10,8.00
2018,12,12,17,11,8.10
2018,12,12,17,12,8.10
2018,12,12,17,13,8.10
2018,12,12,17,14,8.10
2018,12,12,17,15,8.10
2018,12,12,17,16,8.10
2018,12,12,17,17,8.10
2018,12,12,17,18,8.10
2018,12,12,17,19,8.20
2018,12,12,17,20,8.20
2018,12,12,17,21,8.20
2018,12,12,17,22,8.20
2018,12,12,17,23,8.20
2018,12,12,17,24,8.20
2018,12,12,17,25,8.30
2018,12,12,17,26,8.30
2018,12,12,17,27,8.30
2018,12,12,17,28,8.30
2018,12,12,17,29,8.20
2018,12,12,17,30,8.20
2018,12,12,17,31,8.20
2018,12,12,17,32,8.20
2018,12,12,17,33,8.20
2018,12,12,17,34,8.20
2018,12,12,17,35,8.20
2018,12,12,17,36,8.20
2018,12,12,17,37,8.20
2018,12,12,17,38,8.20
2018,12,12,17,39,8.20
2018,12,12,17,40,8.20
2018,12,12,17,41,8.20
2018,12,12,17,42,8.20
2018,12,12,17,43,8.20
2018,12,12,17,44,8.20
2018,12,12,17,45,8.20
2018,12,12,17,46,8.10
2018,12,12,17,47,8.10
2018,12,12,17,48,8.10
2018,12,12,17,49,8.10
2018,12,12,17,50,8.10
2018,12,12,17,51,8.10
2018,12,12,17,52,8.10
2018,12,12,17,53,8.10
2018,12,12,17,54,8.10
2018,12,12,17,55,8.10
2018,12,12,17,56,8.10
2018,12,12,17,57,8.10
2018,12,12,17,58,8.10
2018,12,12,17,59,8.10
2018,12,12,18,00,8.10
2018,12,12,18,01,8.10
2018,12,12,18,02,8.10
2018,12,12,18,03,8.10
2018,12,12,18,04,8.10
2018,12,12,18,05,8.00
2018,12,12,18,06,8.00
2018,12,12,18,07,8.00
2018,12,12,18,08,8.00
2018,12,12,18,09,8.00
2018,12,12,18,10,8.00
2018,12,12,18,11,8.00
2018,12,12,18,12,8.00
2018,12,12,18,13,8.00
2018,12,12,18,14,8.00
2018,12,12,18,15,8.00
2018,12,12,18,16,8.00
2018,12,12,18,17,7.90
2018,12,12,18,18,7.90
2018,12,12,18,19,7.90
2018,12,12,18,20,7.90
2018,12,12,18,21,7.90
2018,12,12,18,22,7.90
2018,12,12,18,23,7.90
2018,12,12,18,24,7.90
2018,12,12,18,25,7.90
2018,12,12,18,26,7.90
2018,12,12,18,27,7.90
2018,12,12,18,28,7.90
2018,12,12,18,29,7.90
2018,12,12,18,30,7.90
2018,12,12,18,31,7.90
2018,12,12,18,32,7.80
2018,12,12,18,33,7.80
2018,12,12,18,34,7.80
2018,12,12,18,35,7.80
2018,12,12,18,36,7.80
2018,12,12,18,37,7.80
2018,12,12,18,38,7.80
2018,12,12,18,39,7.80
2018,12,12,18,40,7.80
2018,12,12,18,41,7.80
2018,12,12,18,42,7.80
2018,12,12,18,43,7.80
2018,12,12,18,44,7.80
2018,12,12,18,45,7.80
2018,12,12,18,46,7.80
2018,12,12,18,47,7.80
2018,12,12,18,48,7.70
2018,12,12,18,49,7.70
2018,12,12,18,50,7.70
2018,12,12,18,51,7.70
2018,12,12,18,52,7.70
2018,12,12,18,53,7.70
2018,12,12,18,54,7.70
2018,12,12,18,55,7.70
2018,12,12,18,56,7.70
2018,12,12,18,57,7.70
2018,12,12,18,58,7.70
2018,12,12,18,59,7.70
2018,12,12,19,00,7.70
2018,12,12,19,01,7.70
2018,12,12,19,02,7.70
2018,12,12,19,03,7.70
2018,12,12,19,04,7.70
2018,12,12,19,05,7.70
2018,12,12,19,06,7.70
2018,12,12,19,07,7.70
2018,12,12,19,08,7.70
2018,12,12,19,09,7.60
2018,12,12,19,10,7.60
2018,12,12,19,11,7.70
2018,12,12,19,12,7.60
2018,12,12,19,13,7.60
2018,12,12,19,14,7.60
2018,12,12,19,15,7.60
2018,12,12,19,16,7.60
2018,12,12,19,17,7.60
2018,12,12,19,18,7.60
2018,12,12,19,19,7.60
2018,12,12,19,20,7.60
2018,12,12,19,21,7.60
2018,12,12,19,22,7.50
2018,12,12,19,23,7.50
2018,12,12,19,24,7.50
2018,12,12,19,25,7.50
2018,12,12,19,26,7.40
2018,12,12,19,27,7.40
2018,12,12,19,28,7.40
2018,12,12,19,29,7.40
2018,12,12,19,30,7.40
2018,12,12,19,31,7.40
2018,12,12,19,32,7.40
2018,12,12,19,33,7.40
2018,12,12,19,34,7.40
2018,12,12,19,35,7.40
2018,12,12,19,36,7.30
2018,12,12,19,37,7.30
2018,12,12,19,38,7.30
2018,12,12,19,39,7.30
2018,12,12,19,40,7.30
2018,12,12,19,41,7.30
2018,12,12,19,42,7.30
2018,12,12,19,43,7.30
2018,12,12,19,44,7.30
2018,12,12,19,45,7.30
2018,12,12,19,46,7.30
2018,12,12,19,47,7.30
2018,12,12,19,48,7.30
2018,12,12,19,49,7.30
2018,12,12,19,50,7.30
2018,12,12,19,51,7.30
2018,12,12,19,52,7.30
2018,12,12,19,53,7.30
2018,12,12,19,54,7.30
2018,12,12,19,55,7.30
2018,12,12,19,56,7.30
2018,12,12,19,57,7.30
2018,12,12,19,58,7.30
2018,12,12,19,59,7.30
2018,12,12,20,00,7.30
2018,12,12,20,01,7.30
2018,12,12,20,02,7.30
2018,12,12,20,03,7.30
2018,12,12,20,04,7.30
2018,12,12,20,05,7.30
2018,12,12,20,06,7.30
2018,12,12,20,07,7.30
2018,12,12,20,08,7.30
2018,12,12,20,09,7.30
2018,12,12,20,10,7.30
2018,12,12,20,11,7.30
2018,12,12,20,12,7.30
2018,12,12,20,13,7.30
2018,12,12,20,14,7.30
2018,12,12,20,15,7.30
2018,12,12,20,16,7.30
2018,12,12,20,17,7.30
2018,12,12,20,18,7.30
2018,12,12,20,19,7.30
2018,12,12,20,20,7.30
2018,12,12,20,21,7.30
2018,12,12,20,22,7.30
2018,12,12,20,23,7.30
2018,12,12,20,24,7.30
2018,12,12,20,25,7.30
2018,12,12,20,26,7.30
2018,12,12,20,27,7.30
2018,12,12,20,28,7.30
2018,12,12,20,29,7.30
2018,12,12,20,30,7.30
2018,12,12,20,31,7.30
2018,12,12,20,32,7.30
2018,12,12,20,33,7.30
2018,12,12,20,34,7.30
2018,12,12,20,35,7.30
2018,12,12,20,36,7.30
2018,12,12,20,37,7.30
2018,12,12,20,38,7.30
2018,12,12,20,39,7.30
2018,12,12,20,40,7.30
2018,12,12,20,41,7.30
2018,12,12,20,42,7.30
2018,12,12,20,43,7.30
2018,12,12,20,44,7.30
2018,12,12,20,45,7.30
2018,12,12,20,46,7.30
2018,12,12,20,47,7.30
2018,12,12,20,48,7.30
2018,12,12,20,49,7.40
2018,12,12,20,50,7.40
2018,12,12,20,51,7.40
2018,12,12,20,52,7.40
2018,12,12,20,53,7.50
2018,12,12,20,54,7.50
2018,12,12,20,55,7.60
2018,12,12,20,56,7.60
2018,12,12,20,57,7.60
2018,12,12,20,58,7.70
2018,12,12,20,59,7.70
2018,12,12,21,00,7.70
2018,12,12,21,01,7.80
2018,12,12,21,02,7.80
2018,12,12,21,03,7.80
2018,12,12,21,04,7.80
2018,12,12,21,05,7.80
2018,12,12,21,06,7.80
2018,12,12,21,07,7.80
2018,12,12,21,08,7.80
2018,12,12,21,09,7.80
2018,12,12,21,10,7.80
2018,12,12,21,11,7.80
2018,12,12,21,12,7.80
2018,12,12,21,13,7.90
2018,12,12,21,14,7.90
2018,12,12,21,15,7.90
2018,12,12,21,16,7.90
2018,12,12,21,17,7.90
2018,12,12,21,18,7.90
2018,12,12,21,19,7.90
2018,12,12,21,20,7.90
2018,12,12,21,21,7.90
2018,12,12,21,22,7.90
2018,12,12,21,23,7.90
2018,12,12,21,24,7.90
2018,12,12,21,25,7.90
2018,12,12,21,26,7.90
2018,12,12,21,27,7.90
2018,12,12,21,28,7.90
2018,12,12,21,29,8.00
2018,12,12,21,30,8.00
2018,12,12,21,31,8.00
2018,12,12,21,32,8.00
2018,12,12,21,33,8.00
2018,12,12,21,34,8.00
2018,12,12,21,35,8.00
2018,12,12,21,36,8.00
2018,12,12,21,37,8.00
2018,12,12,21,38,8.00
2018,12,12,21,39,8.00
2018,12,12,21,40,8.00
2018,12,12,21,41,8.00
2018,12,12,21,42,8.00
2018,12,12,21,43,8.00
2018,12,12,21,44,8.00
2018,12,12,21,45,8.00
2018,12,12,21,46,8.00
2018,12,12,21,47,8.00
2018,12,12,21,48,8.00
2018,12,12,21,49,8.00
2018,12,12,21,50,8.00
2018,12,12,21,51,8.00
2018,12,12,21,52,8.00
2018,12,12,21,53,8.00
2018,12,12,21,54,8.00
2018,12,12,21,55,8.00
2018,12,12,21,56,8.00
2018,12,12,21,57,8.00
2018,12,12,21,58,8.00
2018,12,12,21,59,8.10
2018,12,12,22,00,8.10
2018,12,12,22,01,8.10
2018,12,12,22,02,8.10
2018,12,12,22,03,8.10
2018,12,12,22,04,8.10
2018,12,12,22,05,8.10
2018,12,12,22,06,8.10
2018,12,12,22,07,8.10
2018,12,12,22,08,8.10
2018,12,12,22,09,8.10
2018,12,12,22,10,8.10
2018,12,12,22,11,8.10
2018,12,12,22,12,8.10
2018,12,12,22,13,8.10
2018,12,12,22,14,8.10
2018,12,12,22,15,8.10
2018,12,12,22,16,8.10
2018,12,12,22,17,8.10
2018,12,12,22,18,8.10
2018,12,12,22,19,8.10
2018,12,12,22,20,8.10
2018,12,12,22,21,8.10
2018,12,12,22,22,8.10
2018,12,12,22,23,8.10
2018,12,12,22,24,8.10
2018,12,12,22,25,8.10
2018,12,12,22,26,8.10
2018,12,12,22,27,8.10
2018,12,12,22,28,8.10
2018,12,12,22,29,8.10
2018,12,12,22,30,8.10
2018,12,12,22,31,8.10
2018,12,12,22,32,8.10
2018,12,12,22,33,8.10
2018,12,12,22,34,8.10
2018,12,12,22,35,8.10
2018,12,12,22,36,8.10
2018,12,12,22,37,8.10
2018,12,12,22,38,8.10
2018,12,12,22,39,8.10
2018,12,12,22,40,8.10
2018,12,12,22,41,8.10
2018,12,12,22,42,8.10
2018,12,12,22,43,8.10
2018,12,12,22,44,8.10
2018,12,12,22,45,8.10
2018,12,12,22,46,8.10
2018,12,12,22,47,8.10
2018,12,12,22,48,8.10
2018,12,12,22,49,8.10
2018,12,12,22,50,8.10
2018,12,12,22,51,8.10
2018,12,12,22,52,8.10
2018,12,12,22,53,8.10
2018,12,12,22,54,8.10
2018,12,12,22,55,8.10
2018,12,12,22,56,8.10
2018,12,12,22,57,8.10
2018,12,12,22,58,8.10
2018,12,12,22,59,8.10
2018,12,12,23,00,8.10
2018,12,12,23,01,8.10
2018,12,12,23,02,8.10
2018,12,12,23,03,8.10
2018,12,12,23,04,8.10
2018,12,12,23,05,8.10
2018,12,12,23,06,8.10
2018,12,12,23,07,8.10
2018,12,12,23,08,8.10
2018,12,12,23,09,8.10
2018,12,12,23,10,8.10
2018,12,12,23,11,8.10
2018,12,12,23,12,8.10
2018,12,12,23,13,8.10
2018,12,12,23,14,8.10
2018,12,12,23,15,8.10
2018,12,12,23,16,8.10
2018,12,12,23,17,8.10
2018,12,12,23,18,8.10
2018,12,12,23,19,8.10
2018,12,12,23,20,8.10
2018,12,12,23,21,8.20
2018,12,12,23,22,8.20
2018,12,12,23,23,8.20
2018,12,12,23,24,8.20
2018,12,12,23,25,8.20
2018,12,12,23,26,8.20
2018,12,12,23,27,8.20
2018,12,12,23,28,8.20
2018,12,12,23,29,8.20
2018,12,12,23,30,8.20
2018,12,12,23,31,8.20
2018,12,12,23,32,8.20
2018,12,12,23,33,8.20
2018,12,12,23,34,8.20
2018,12,12,23,35,8.20
2018,12,12,23,36,8.20
2018,12,12,23,37,8.20
2018,12,12,23,38,8.20
2018,12,12,23,39,8.20
2018,12,12,23,40,8.20
2018,12,12,23,41,8.20
2018,12,12,23,42,8.20
2018,12,12,23,43,8.20
2018,12,12,23,44,8.20
2018,12,12,23,45,8.20
2018,12,12,23,46,8.20
2018,12,12,23,47,8.20
2018,12,12,23,48,8.20
2018,12,12,23,49,8.20
2018,12,12,23,50,8.20
2018,12,12,23,51,8.20
2018,12,12,23,52,8.20
2018,12,12,23,53,8.20
2018,12,12,23,54,8.20
2018,12,12,23,55,8.20
2018,12,12,23,56,8.20
2018,12,12,23,57,8.20
2018,12,12,23,58,8.20
2018,12,12,23,59,8.20
